[TLELIST] Archives

 

Current TLEs

April 15th 2007 PDT

HST 1 20580U 90037B 07104.80902356 .00000411 00000-0 19090-4 0 8504 2 20580 028.4672 243.4137 0003735 143.3789 216.7059 15.00222742730435 ISS (ZARYA) 1 25544U 98067A 07104.99043566 .00015907 00000-0 91417-4 0 229 2 25544 051.6321 070.4620 0016047 067.5368 003.1202 15.78794110480791 CXO 1 25867U 99040B 07104.20833333 .00000487 00000-0 00000+0 0 570 2 25867 061.5069 090.7010 6144457 285.1843 000.1802 00.37808417 2018 ____________________________________________________________________ These 2-Line ...Continue Reading

Current TLEs

April 14th 2007 PDT

HST 1 20580U 90037B 07103.74460880 .00000398 00000-0 18064-4 0 8499 2 20580 028.4672 250.3546 0003662 132.3012 227.7884 15.00222128730270 ISS (ZARYA) 1 25544U 98067A 07104.48926123 .00016589 00000-0 95233-4 0 195 2 25544 051.6326 073.0525 0015992 066.7484 033.4955 15.78779354480713 CXO 1 25867U 99040B 07104.20833333 .00000487 00000-0 00000+0 0 570 2 25867 061.5069 090.7010 6144457 285.1843 000.1802 00.37808417 2018 ____________________________________________________________________ These 2-Line ...Continue Reading

Current TLEs

April 13th 2007 PDT

HST 1 20580U 90037B 07102.54714083 .00000400 00000-0 18246-4 0 8488 2 20580 028.4676 258.1627 0003599 121.0866 239.0076 15.00221696730099 ISS (ZARYA) 1 25544U 98067A 07103.29344212 .00014938 00000-0 86334-4 0 127 2 25544 051.6325 079.2372 0016058 061.9223 077.2301 15.78732567480527 CXO 1 25867U 99040B 07104.20833333 .00000487 00000-0 00000+0 0 570 2 25867 061.5069 090.7010 6144457 285.1843 000.1802 00.37808417 2018 ____________________________________________________________________ These 2-Line ...Continue Reading

Current TLEs

April 12th 2007 PDT

HST 1 20580U 90037B 07101.68230215 +.00000465 +00000-0 +23279-4 0 08531 2 20580 028.4673 263.8009 0003640 111.8502 248.2463 15.00221675729967 ISS (ZARYA) 1 25544U 98067A 07102.47133632 .00014670 00000-0 84953-4 0 70 2 25544 051.6336 083.4908 0016168 059.5355 084.0948 15.78705258480397 CXO 1 25867U 99040B 07101.58333333 .00000468 00000-0 00000+0 0 561 2 25867 061.4901 090.7539 6139257 285.2058 002.8534 00.37805519 2009 ____________________________________________________________________ These 2-Line ...Continue Reading

Current TLEs

April 11th 2007 PDT

HST 1 20580U 90037B 07099.81957269 +.00000472 +00000-0 +23836-4 0 08512 2 20580 028.4679 275.9452 0003567 092.9224 267.1770 15.00220697729680 ISS (ZARYA) 1 25544U 98067A 07100.56489780 .00014454 00000-0 83988-4 0 9960 2 25544 051.6347 093.3468 0016014 052.3831 049.1810 15.78648763480094 CXO 1 25867U 99040B 07098.33333333 .00000433 00000-0 00000+0 0 550 2 25867 061.4727 090.8175 6133451 285.2591 280.3679 00.37805173 1990 ____________________________________________________________________ These 2-Line ...Continue Reading

Current TLEs

April 10th 2007 PDT

HST 1 20580U 90037B 07097.89031412 +.00000533 +00000-0 +28660-4 0 08452 2 20580 028.4680 288.5231 0003505 071.7873 288.3097 15.00220002729399 ISS (ZARYA) 1 25544U 98067A 07100.31697973 .00014718 00000-0 85480-4 0 9937 2 25544 051.6343 094.6275 0015907 052.3317 079.3330 15.78642313480052 CXO 1 25867U 99040B 07098.33333333 .00000433 00000-0 00000+0 0 550 2 25867 061.4727 090.8175 6133451 285.2591 280.3679 00.37805173 1990 ____________________________________________________________________ These 2-Line ...Continue Reading

Current TLEs

April 9th 2007 PDT

HST 1 20580U 90037B 07095.69494925 +.00000553 +00000-0 +30204-4 0 08459 2 20580 028.4680 302.8345 0003463 048.4371 311.6513 15.00218481729067 ISS (ZARYA) 1 25544U 98067A 07099.48538314 .00015542 00000-0 90114-4 0 9885 2 25544 051.6341 098.9280 0016022 048.6900 033.7646 15.78620216479924 CXO 1 25867U 99040B 07098.33333333 .00000433 00000-0 00000+0 0 550 2 25867 061.4727 090.8175 6133451 285.2591 280.3679 00.37805173 1990 ____________________________________________________________________ These 2-Line ...Continue Reading

Current TLEs

April 8th 2007 PDT

HST 1 20580U 90037B 07095.02968663 .00000553 00000-0 30218-4 0 8445 2 20580 028.4680 307.1711 0003464 041.3743 318.7107 15.00217966728960 ISS (ZARYA) 1 25544U 98067A 07098.48201731 .00016367 00000-0 94810-4 0 9810 2 25544 051.6346 104.1185 0015947 045.0019 091.4956 15.78591116479763 CXO 1 25867U 99040B 07098.33333333 .00000433 00000-0 00000+0 0 550 2 25867 061.4727 090.8175 6133451 285.2591 280.3679 00.37805173 1990 ____________________________________________________________________ These 2-Line ...Continue Reading

Current TLEs

April 7th 2007 PDT

HST 1 20580U 90037B 07095.02968663 .00000553 00000-0 30218-4 0 8445 2 20580 028.4680 307.1711 0003464 041.3743 318.7107 15.00217966728960 ISS (ZARYA) 1 25544U 98067A 07097.46892755 .00017708 00000-0 10237-3 0 9752 2 25544 051.6334 109.3544 0016053 040.5991 094.7521 15.78561243479609 CXO 1 25867U 99040B 07096.29166667 .00000411 00000-0 00000+0 0 542 2 25867 061.4626 090.8468 6129419 285.3083 002.3920 00.37805156 1980 ____________________________________________________________________ These 2-Line ...Continue Reading

Current TLEs

April 6th 2007 PDT

HST 1 20580U 90037B 07094.96316038 +.00000553 +00000-0 +30218-4 0 08530 2 20580 028.4680 307.6048 0003464 040.6680 319.4168 15.00217914728957 ISS (ZARYA) 1 25544U 98067A 07 96.43226362 .00018676 00000-0 10397-3 0 9700 2 25544 051.6320 114.7205 0016107 035.8509 324.4101 15.78524665479446 CXO 1 25867U 99040B 07096.29166667 .00000411 00000-0 00000+0 0 542 2 25867 061.4626 090.8468 6129419 285.3083 002.3920 00.37805156 1980 ____________________________________________________________________ These 2-Line ...Continue Reading
  • This mailing list is a public mailing list - anyone may join or leave, at any time.
  • This mailing list is announce-only.

International Space Station (ISS) / Hubble Space Telescope (HST) / Chandra X-Ray Observatory Orbital Data via EMAIL

Privacy Policy:

Private list